Flag for China Weather past 2 weeks in Hohhot, Inner Mongolia, China

Now
19 °F

Ice fog.


Feels Like: 19 °F
Forecast: 18 / 29 °F
Wind: 1 mph from Southwest

Location: Hohhot Airport

Current Time: Feb 28, 2015 at 7:36:23 AM

Latest Report: Feb 28, 2015 at 7:00 AM


Visibility: 1 mi

Pressure: 30.12 "Hg

Humidity: 100%

Dew point: 19 °F

Location of HohhotLocation

Historic Weather in Hohhot — Graph

°F

Hohhot temperature yesterday

Maximum temperature yesterday: 25 °F (at 4:00 PM)
Minimum temperature yesterday: 16 °F (at 2:00 AM)
Average temperature yesterday: 21 °F

Past Weeks' High & Low Weather Summary

 TemperatureHumidityPressure
High52 °F (Feb 14, 3:00 PM)100% (Feb 19, 9:00 AM)30.30 "Hg (Feb 19, 9:00 AM)
Low-2 °F (Feb 22, 7:00 AM)14% (Feb 17, 12:00 PM)29.80 "Hg (Feb 14, 5:00 AM)
Average24 °F56%30.05 "Hg
* Reported Feb 13 6:00 AM — Feb 28 6:00 AM, Hohhot, Weather by CustomWeather, © 2015

Note: Actual official high and low records may vary slightly from our data, if they occured in-between our weather recording intervals... More about our weather records

Advertising

Hohhot weather history for previous 24 hours

 ConditionsComfort  
Time TempWeatherWind HumidityBarometerVisibility
6:00 AM
Sat, Feb 28
21 °FIce fog.6 mph100%30.12 "Hg2 mi
5:00 AM21 °FIce fog.6 mph100%30.12 "Hg2 mi
4:00 AM23 °FIce fog.3 mph93%30.12 "Hg3 mi
3:00 AM23 °FLight snow. Ice fog.3 mph100%30.12 "Hg2 mi
2:00 AM23 °FLight snow. Ice fog.1 mph100%30.12 "Hg1 mi
1:00 AM23 °FLight snow. Ice fog.No wind100%30.15 "Hg1 mi
12:00 AM23 °FLight snow. Ice fog.No wind100%30.15 "Hg2 mi
11:00 PM
Fri, Feb 27
23 °FLight snow. Ice fog.1 mph100%30.15 "Hg1 mi
10:00 PM25 °FLight snow. Ice fog.1 mph93%30.15 "Hg2 mi
9:00 PM23 °FLight snow. Ice fog.1 mph100%30.15 "Hg2 mi
8:00 PM23 °FLight snow. Ice fog.1 mph100%30.15 "Hg2 mi
7:00 PM23 °FLight snow. Ice fog.1 mph100%30.15 "Hg2 mi
6:00 PM25 °FLight snow. Ice fog.1 mph93%30.12 "Hg2 mi
5:00 PM25 °FLight snow. Ice fog.1 mph93%30.12 "Hg2 mi
4:00 PM25 °FLight snow. Ice fog.3 mph93%30.12 "Hg2 mi
3:00 PM23 °FLight snow. Ice fog.3 mph100%30.12 "Hg1 mi
2:00 PM23 °FLight snow. Ice fog.3 mph100%30.15 "Hg2 mi
1:00 PM23 °FLight snow. Ice fog.6 mph93%30.15 "Hg2 mi
12:00 PM21 °FLight snow. Ice fog.6 mph93%30.18 "Hg2 mi
11:00 AM19 °FLight snow. Ice fog.8 mph93%30.18 "Hg2 mi
10:00 AM19 °FLight snow. Partly sunny.6 mph68%30.18 "HgN/A
9:00 AM19 °FLight snow. Partly sunny.8 mph68%30.18 "Hg4 mi
8:00 AM21 °FScattered clouds.6 mph42%30.18 "HgN/A
7:00 AM19 °FClear.8 mph42%30.15 "Hg10 mi
Weather by CustomWeather, © 2015

See weather overviewHow to use our weather pages